(488) Kreusa
ephemeris date magn radius delta ra dec elong phase
Opposition5 Apr 202511.82.734 AU1.760 AU13h24m+09°01'163.4°6.0°
Today9 May 202512.32.767 AU1.916 AU13h01m+09°03'140.0°13.6°
(488) Kreusa - 2025-05-09
astro.vanbuitenen.nl


 
-1 year
-1 month
-1 day
Now
+1 day
+1 month
+1 year

The interactive orbit chart above shows the body's path through the solar system and its position at the given date. Green and blue lines are shown perpendicular to the ecliptic plane: Green if the path is above the ecliptic plane, blue if it is below. (Left-click and drag to rotate the view; Right-click and drag to move the view; Use scroll wheel to zoom in our out.)

The orbital elements of Kreusa are:

            e (Eccentricity)                : 0.1583151
            a (Semimajor axis)              : 3.1666778
            i (Inclination)                 : 11.47623
            Ω (Longitude of ascending node) : 82.98126
            ω (Argument of perihelion)      : 77.22942
            M (Mean anomaly)                : 30.88748
            Epoch                           : 2025 May 05

            L (Longitude of perihelion)     : 159.95895
            B (Latitude of perihelion)      : 11.18863
            P (Orbital period in years)     : 5.64            
        

The light curve chart below shows the estimated development of the minor planet's magnitude.


The all-sky chart below shows the path of the minor planet over the same period as the light curve. The current position is marked yellow.





The following chart shows the path of the minor planet in the next few days. The field of view is optimized for (~10x50) binoculars and finderscopes. A more printer-friendly version of the same chart can be found below.




Ephemerides:
Date       Time       RA (2000)    DEC (2000)    delta   radius  elong  phase   PA    magn
2025-05-09 00:00 UT   13 01 20.4   +09 03 37     1.916    2.767  140.0   13.6   131   12.3 
2025-05-09 22:52 UT   13 00 54.9   +09 00 31     1.924    2.768  139.1   13.8   130   12.3 
2025-05-10 00:00 UT   13 00 53.7   +09 00 21     1.925    2.768  139.0   13.8   130   12.3 
2025-05-11 00:00 UT   13 00 28.3   +08 56 54     1.934    2.769  138.1   14.1   130   12.3 
2025-05-12 00:00 UT   13 00 04.1   +08 53 16     1.943    2.770  137.2   14.4   129   12.3 
2025-05-13 00:00 UT   12 59 41.2   +08 49 28     1.952    2.771  136.2   14.6   128   12.4 
2025-05-14 00:00 UT   12 59 19.6   +08 45 30     1.961    2.772  135.3   14.9   128   12.4 
2025-05-15 00:00 UT   12 58 59.3   +08 41 21     1.970    2.773  134.4   15.1   127   12.4 
2025-05-16 00:00 UT   12 58 40.3   +08 37 02     1.980    2.774  133.4   15.3   127   12.4 
2025-05-17 00:00 UT   12 58 22.5   +08 32 34     1.990    2.775  132.5   15.6   126   12.4 
2025-05-18 00:00 UT   12 58 06.1   +08 27 56     2.000    2.776  131.6   15.8   126   12.5 
2025-05-19 00:00 UT   12 57 51.0   +08 23 08     2.010    2.777  130.7   16.0   125   12.5 
2025-05-20 00:00 UT   12 57 37.3   +08 18 11     2.020    2.778  129.7   16.3   125   12.5 
2025-05-21 00:00 UT   12 57 24.8   +08 13 05     2.031    2.780  128.8   16.5   124   12.5 
2025-05-22 00:00 UT   12 57 13.7   +08 07 49     2.041    2.781  127.9   16.7   124   12.5 
2025-05-23 00:00 UT   12 57 03.9   +08 02 25     2.052    2.782  127.0   16.9   123   12.6 
2025-05-24 00:00 UT   12 56 55.5   +07 56 53     2.063    2.783  126.1   17.1   123   12.6 
2025-05-25 00:00 UT   12 56 48.4   +07 51 11     2.074    2.784  125.2   17.3   123   12.6 
2025-05-26 00:00 UT   12 56 42.6   +07 45 22     2.085    2.785  124.3   17.5   122   12.6 
2025-05-27 00:00 UT   12 56 38.2   +07 39 24     2.097    2.786  123.4   17.7   122   12.6 
2025-05-28 00:00 UT   12 56 35.1   +07 33 18     2.108    2.787  122.5   17.8   121   12.7 
2025-05-29 00:00 UT   12 56 33.4   +07 27 04     2.120    2.789  121.7   18.0   121   12.7 
2025-05-30 00:00 UT   12 56 33.0   +07 20 42     2.131    2.790  120.8   18.2   121   12.7 
2025-05-31 00:00 UT   12 56 33.9   +07 14 14     2.143    2.791  119.9   18.4   120   12.7 
2025-06-01 00:00 UT   12 56 36.1   +07 07 37     2.155    2.792  119.1   18.5   120   12.7 
2025-06-02 00:00 UT   12 56 39.7   +07 00 54     2.167    2.793  118.2   18.7   120   12.7 
2025-06-03 00:00 UT   12 56 44.5   +06 54 04     2.179    2.794  117.3   18.8   119   12.8 
2025-06-04 00:00 UT   12 56 50.6   +06 47 07     2.192    2.795  116.5   19.0   119   12.8 
2025-06-05 00:00 UT   12 56 58.0   +06 40 03     2.204    2.797  115.6   19.1   119   12.8 
2025-06-06 00:00 UT   12 57 06.7   +06 32 54     2.216    2.798  114.8   19.2   119   12.8 
2025-06-07 00:00 UT   12 57 16.6   +06 25 38     2.229    2.799  113.9   19.4   118   12.8 
2025-06-08 00:00 UT   12 57 27.7   +06 18 16     2.242    2.800  113.1   19.5   118   12.9 


    Terminology:
            
    delta:  distance between minor planet and earth in AU
    radius: distance between minor planet and sun in AU
    magn:   magnitude (brightness) estimate    
    ra:     right ascension in hours (24h = 360deg)
    dec:    declination in degrees
    elong:  elongation in degrees (angle sun-earth-minor planet)    
    phase:  phase angle in degrees (angle sun-minor planet-earth)        
    AU:     Astronomical Unit (mean distance between earth and sun: 149597870.7 km
    

Orbital elements provided by the MPC (Minor Planet Center).
Calculations by a modified version of AAPlus, a C# implementation of the AA+ project by PJ Naughter from the algorithms presented in the book "Astronomical Algorithms" by Jean Meeus.
NGC2000 dso catalog and star labels from VizieR as provided by the Strasbourg astronomical Data Center.
Tycho2 catalog from the ESO archive.